User: anonymous   Login
Location: Unspecified
(0.0000°N, 0.0000°E)
Time: 22:17:40
(UTC+00:00)
Language:

STARLINK-11276 [DTC] - Orbit

View from above orbital plane
View from above orbital plane
View from above satellite
View from above satellite

Ground track
Ground track

The orbit is defined by the following mean orbital elements,

1 61244U          26145.13567867 +.00000000 +00000-0 +27808-4 0 00000
2 61244  53.1590  39.3806 0000966  89.7139 270.3990 15.69697708    07
Epoch (UTC): 25 May 2026 03:15:22
Eccentricity: 0.0000966
inclination: 53.1590°
perigee height: 359 km
apogee height: 360 km
right ascension of ascending node: 39.3806°
argument of perigee: 89.7139°
revolutions per day: 15.69697708
mean anomaly at epoch: 270.3990°

The dashed part of the orbit path shows where the satellite is in the earth's shadow,  

DLR